1281916828346,0.636581
1281916888346,0.632153
1281916948346,0.635971
1281917008346,0.628394
1281917068346,0.633437
1281917128346,0.627567
1281917188346,0.634656
1281917248346,0.631874
1281917308346,0.632698
1281917368346,0.632365
1281917428346,0.628189
1281917488346,0.634309
1281917548346,0.634864
1281917608346,0.626616
1281917668346,0.628330
1281917728346,0.631201
1281917788346,0.630580
1281917848346,0.632630
1281917908346,0.624393
1281917968346,0.626635
1281918028346,0.627252
1281918088346,0.629798
1281918148346,0.620427
1281918208346,0.633341
1281918268346,0.629281
1281918328346,0.628041
1281918388346,0.631057
1281918448346,0.623089
1281918508346,0.623493
1281918568346,0.622248
1281918628346,0.621962
1281918688346,0.630844
1281918748346,0.624877
1281918808346,0.627526
1281918868346,0.627113
1281918928346,0.626670
1281918988346,0.628250
1281919048346,0.629422
1281919108346,0.631113
1281919168346,0.626121
1281919228346,0.631403
1281919288346,0.631750
1281919348346,0.627592
1281919408346,0.628041
1281919468346,0.636429
1281919528346,0.629774
1281919588346,0.630720
1281919648346,0.626027
1281919708346,0.622664
1281919768346,0.623246
1281919828346,0.630602
1281919888346,0.628355
1281919948346,0.624925
1281920008346,0.626665
1281920068346,0.625921
1281920128346,0.626288
1281920188346,0.627505
1281920248346,0.630488
1281920308346,0.631413
1281920368346,0.631306
1281920428356,0.630114
1281920488356,0.623694
1281920548356,0.624475
1281920608356,0.627955
1281920668356,0.625539
1281920728356,0.633707
1281920788356,0.627937
1281920848356,0.623563
1281920908356,0.625430
1281920968356,0.621562
1281921028356,0.625587
1281921088356,0.625155
1281921148356,0.625257
1281921208356,0.624635
1281921268356,0.629416
1281921328356,0.628271
1281921388356,0.629456
1281921448356,0.631763
1281921508356,0.629615
1281921568356,0.630436
1281921628356,0.628585
1281921688356,0.630001
1281921748356,0.627965
1281921808356,0.628565
1281921868356,0.634263
1281921928356,0.630373
1281921988356,0.634144
1281922048356,0.627666
1281922108356,0.634009
1281922168356,0.637090
1281922228356,0.625180
1281922288356,0.628094
1281922348356,0.625259
1281922408356,0.632208
1281922468356,0.631361
1281922528356,0.626850
1281922588356,0.630421
1281922648356,0.626341
1281922708356,0.632840
1281922768356,0.626889
1281922828356,0.628195
1281922888356,0.631375
1281922948356,0.635561
1281923008356,0.632545
1281923068356,0.633485
1281923128356,0.627181
1281923188356,0.640632
1281923248356,0.634790
1281923308356,0.635052
1281923368356,0.640316
1281923428356,0.640770
1281923488356,0.633076
1281923548356,0.630851
1281923608356,0.637820
1281923668356,0.640299
1281923728356,0.641401
1281923788356,0.649527
1281923848356,0.642542
1281923908356,0.643479
1281923968356,0.641233
1281924028365,0.643990
1281924088365,0.636918
1281924148365,0.641334
1281924208365,0.645344
1281924268365,0.629414
1281924328365,0.632448
1281924388365,0.631647
1281924448365,0.634184
1281924508365,0.637343
1281924568365,0.633360
1281924628365,0.634001
1281924688365,0.630929
1281924748365,0.631661
1281924808365,0.631247
1281924868365,0.631629
1281924928365,0.629381
1281924988365,0.630247
1281925048365,0.633527
1281925108365,0.620748
1281925168365,0.624301
1281925228365,0.626673
1281925288365,0.632331
1281925348365,0.628929
1281925408365,0.636645
1281925468365,0.640089
1281925528365,0.640123
1281925588365,0.635712
1281925648365,0.636121
1281925708365,0.634352
1281925768365,0.639432
1281925828365,0.642731
1281925888365,0.636810
1281925948365,0.642837
1281926008365,0.639530
1281926068365,0.642729
1281926128365,0.639527
1281926188365,0.637884
1281926248365,0.644911
1281926308365,0.646756
1281926368365,0.643433
1281926428365,0.647526
1281926488365,0.648621
1281926548365,0.643248
1281926608365,0.647719
1281926668365,0.644121
1281926728365,0.648418
1281926788365,0.651866
1281926848365,0.652585
1281926908365,0.646492
1281926968365,0.641568
1281927028365,0.644533
1281927088365,0.643301
1281927148365,0.631656
1281927208365,0.630510
1281927268365,0.635945
1281927328365,0.637319
1281927388365,0.635499
1281927448365,0.634071
1281927508365,0.628671
1281927568365,0.630027
1281927628374,0.628200
1281927688374,0.632382
1281927748374,0.625635
1281927808374,0.630312
1281927868374,0.638787
1281927928374,0.634142
1281927988374,0.633172
1281928048374,0.626937
1281928108374,0.624731
1281928168374,0.635918
1281928228374,0.630902
1281928288374,0.628944
1281928348374,0.625529
1281928408374,0.629810
1281928468374,0.630147
1281928528374,0.628188
1281928588374,0.632136
1281928648374,0.628835
1281928708374,0.623694
1281928768374,0.632470
1281928828374,0.626870
1281928888374,0.623931
1281928948374,0.636254
1281929008374,0.628458
1281929068374,0.630588
1281929128374,0.631153
1281929188374,0.620583
1281929248374,0.623242
1281929308374,0.629600
1281929368374,0.632649
1281929428374,0.628275
1281929488374,0.625468
1281929548374,0.633715
1281929608374,0.632554
1281929668374,0.626685
1281929728374,0.624277
1281929788374,0.626846
1281929848374,0.627307
1281929908374,0.626327
1281929968374,0.625100
1281930028374,0.623873
1281930088374,0.626144
1281930148374,0.627325
1281930208374,0.620986
1281930268374,0.626146
1281930328374,0.627680
1281930388374,0.631360
1281930448374,0.622913
1281930508374,0.623068
1281930568374,0.631833
1281930628374,0.619532
1281930688374,0.627917
1281930748374,0.628363
1281930808374,0.628668
1281930868374,0.629296
1281930928374,0.626547
1281930988374,0.622069
1281931048374,0.617738
1281931108374,0.628102
1281931168374,0.625865
1281931228383,0.630578
1281931288383,0.619954
1281931348383,0.623066
1281931408383,0.622453
1281931468383,0.622793
1281931528383,0.625251
1281931588383,0.621034
1281931648383,0.623695
1281931708383,0.623905
1281931768383,0.625393
1281931828383,0.622108
1281931888383,0.627182
1281931948383,0.622563
1281932008383,0.632806
1281932068383,0.619943
1281932128383,0.622075
1281932188383,0.621637
1281932248383,0.623991
1281932308383,0.627804
1281932368383,0.626911
1281932428383,0.623416
1281932488383,0.617251
1281932548383,0.628959
1281932608383,0.629216
1281932668383,0.630213
1281932728383,0.626193
1281932788383,0.625823
1281932848383,0.624859
1281932908383,0.620536
1281932968383,0.620933
1281933028383,0.624992
1281933088383,0.614632
1281933148383,0.619317
1281933208383,0.619731
1281933268383,0.628661
1281933328383,0.621767
1281933388383,0.624291
1281933448383,0.620230
1281933508383,0.623885
1281933568383,0.624346
1281933628383,0.619881
1281933688383,0.622094
1281933748383,0.619917
1281933808383,0.626038
1281933868383,0.629329
1281933928383,0.621757
1281933988383,0.625482
1281934048383,0.626061
1281934108383,0.615367
1281934168383,0.628917
1281934228383,0.621961
1281934288383,0.623634
1281934348383,0.625685
1281934408383,0.619516
1281934468383,0.620299
1281934528383,0.626055
1281934588383,0.620570
1281934648383,0.627831
1281934708383,0.627104
1281934768383,0.628428
1281934828392,0.626624
1281934888392,0.619748
1281934948392,0.619458
1281935008392,0.622473
1281935068392,0.621909
1281935128392,0.624465
1281935188392,0.618362
1281935248392,0.617697
1281935308392,0.619095
1281935368392,0.621947
1281935428392,0.621373
1281935488392,0.619839
1281935548392,0.625328
1281935608392,0.623127
1281935668392,0.618181
1281935728392,0.618699
1281935788392,0.615039
1281935848392,0.616734
1281935908392,0.622658
1281935968392,0.621910
1281936028392,0.617643
1281936088392,0.616573
1281936148392,0.621010
1281936208392,0.619136
1281936268392,0.626926
1281936328392,0.620888
1281936388392,0.618415
1281936448392,0.626581
1281936508392,0.617240
1281936568392,0.622336
1281936628392,0.619428
1281936688392,0.614810
1281936748392,0.618151
1281936808392,0.623599
1281936868392,0.619731
1281936928392,0.617306
1281936988392,0.618146
1281937048392,0.620533
1281937108392,0.613666
1281937168392,0.621853
1281937228392,0.619034
1281937288392,0.618831
1281937348392,0.620171
1281937408392,0.616434
1281937468392,0.620262
1281937528392,0.618702
1281937588392,0.628086
1281937648392,0.626823
1281937708392,0.623266
1281937768392,0.625619
1281937828392,0.626077
1281937888392,0.619862
1281937948392,0.621061
1281938008392,0.623051
1281938068392,0.627251
1281938128392,0.625608
1281938188392,0.624701
1281938248392,0.625695
1281938308392,0.622934
1281938368392,0.627262
1281938428401,0.629578
1281938488401,0.622994
1281938548401,0.623550
1281938608401,0.620369
1281938668401,0.623463
1281938728401,0.617189
1281938788401,0.620536
1281938848401,0.623975
1281938908401,0.626175
1281938968401,0.627682
1281939028401,0.619541
1281939088401,0.618483
1281939148401,0.624841
1281939208401,0.625606
1281939268401,0.627807
1281939328401,0.629227
1281939388401,0.626821
1281939448401,0.617902
1281939508401,0.622300
1281939568401,0.626732
1281939628401,0.628772
1281939688401,0.626105
1281939748401,0.623279
1281939808401,0.628582
1281939868401,0.625528
1281939928401,0.628263
1281939988401,0.628549
1281940048401,0.629985
1281940108401,0.625771
1281940168401,0.625692
1281940228401,0.630864
1281940288401,0.619629
1281940348401,0.625234
1281940408401,0.626747
1281940468401,0.621527
1281940528401,0.623890
1281940588401,0.618436
1281940648401,0.614481
1281940708401,0.619126
1281940768401,0.624556
1281940828401,0.622993
1281940888401,0.621833
1281940948401,0.620804
1281941008401,0.629729
1281941068401,0.631952
1281941128401,0.626274
1281941188401,0.624037
1281941248401,0.620608
1281941308401,0.627625
1281941368401,0.623053
1281941428401,0.647559
1281941488401,0.627187
1281941548401,0.623217
1281941608401,0.623351
1281941668401,0.625977
1281941728401,0.624393
1281941788401,0.624442
1281941848401,0.624608
1281941908401,0.622960
1281941968401,0.625165
1281942028409,0.625004
1281942088409,0.630798
1281942148409,0.625193
1281942208409,0.629825
1281942268409,0.626326
1281942328409,0.621373
1281942388409,0.624939
1281942448409,0.630117
1281942508409,0.623612
1281942568409,0.629334
1281942628409,0.622577
1281942688409,0.617248
1281942748409,0.621716
1281942808409,0.616780
1281942868409,0.624020
1281942928409,0.616936
1281942988409,0.629680
1281943048409,0.629507
1281943108409,0.631711
1281943168409,0.625722
1281943228409,0.625408
1281943288409,0.626298
1281943348409,0.629003
1281943408409,0.633129
1281943468409,0.622376
1281943528409,0.626899
1281943588409,0.625268
1281943648409,0.630267
1281943708409,0.626744
1281943768409,0.632289
1281943828409,0.628481
1281943888409,0.627579
1281943948409,0.635070
1281944008409,0.632581
1281944068409,0.635884
1281944128409,0.633398
1281944188409,0.631205
1281944248409,0.627004
1281944308409,0.636549
1281944368409,0.630452
1281944428409,0.633651
1281944488409,0.631078
1281944548409,0.628613
1281944608409,0.627624
1281944668409,0.631104
1281944728409,0.634772
1281944788409,0.629493
1281944848409,0.629438
1281944908409,0.629682
1281944968409,0.628214
1281945028409,0.630658
1281945088409,0.629981
1281945148409,0.632537
1281945208409,0.634721
1281945268409,0.633650
1281945328409,0.635541
1281945388409,0.629874
1281945448409,0.627534
1281945508409,0.637889
1281945568409,0.633294
1281945628418,0.632624
1281945688418,0.633807
1281945748418,0.632000
1281945808418,0.626102
1281945868418,0.628111
1281945928418,0.633669
1281945988418,0.625813
1281946048418,0.639456
1281946108418,0.631024
1281946168418,0.625781
1281946228418,0.632225
1281946288418,0.625156
1281946348418,0.630851
1281946408418,0.631389
1281946468418,0.630664
1281946528418,0.638146
1281946588418,0.636388
1281946648418,0.634177
1281946708418,0.637716
1281946768418,0.629477
1281946828418,0.630112
1281946888418,0.636784
1281946948418,0.637848
1281947008418,0.641461
1281947068418,0.633461
1281947128418,0.631078
1281947188418,0.629459
1281947248418,0.638457
1281947308418,0.630426
1281947368418,0.633063
1281947428418,0.637108
1281947488418,0.629879
1281947548418,0.627394
1281947608418,0.629662
1281947668418,0.633970
1281947728418,0.626990
1281947788418,0.643078
1281947848418,0.625710
1281947908418,0.629452
1281947968418,0.629568
1281948028418,0.630570
1281948088418,0.626257
1281948148418,0.629311
1281948208418,0.627281
1281948268418,0.627605
1281948328418,0.620502
1281948388418,0.624873
1281948448418,0.627612
1281948508418,0.627464
1281948568418,0.631895
1281948628418,0.625501
1281948688418,0.625259
1281948748418,0.630393
1281948808418,0.628575
1281948868418,0.630966
1281948928418,0.623898
1281948988418,0.632292
1281949048418,0.636027
1281949108418,0.634411
1281949168418,0.635492
1281949228427,0.633963
1281949288427,0.627931
1281949348427,0.633771
1281949408427,0.629458
1281949468427,0.630896
1281949528427,0.625375
1281949588427,0.633407
1281949648427,0.626291
1281949708427,0.630948
1281949768427,0.624896
1281949828427,0.630567
1281949888427,0.627787
1281949948427,0.631988
1281950008427,0.633815
1281950068427,0.636606
1281950128427,0.637625
1281950188427,0.626230
1281950248427,0.631136
1281950308427,0.631762
1281950368427,0.632744
1281950428427,0.631933
1281950488427,0.631190
1281950548427,0.630704
1281950608427,0.632781
1281950668427,0.622900
1281950728427,0.622717
1281950788427,0.633886
1281950848427,0.625205
1281950908427,0.629812
1281950968427,0.635111
1281951028427,0.633397
1281951088427,0.637498
1281951148427,0.629788
1281951208427,0.635755
1281951268427,0.630502
1281951328427,0.637631
1281951388427,0.630078
1281951448427,0.630496
1281951508427,0.625205
1281951568427,0.627361
1281951628427,0.626464
1281951688427,0.632159
1281951748427,0.621659
1281951808427,0.629333
1281951868427,0.630149
1281951928427,0.625992
1281951988427,0.623090
1281952048427,0.631253
1281952108427,0.628624
1281952168427,0.631495
1281952228427,0.617717
1281952288427,0.627409
1281952348427,0.628889
1281952408427,0.625741
1281952468427,0.627925
1281952528427,0.624116
1281952588427,0.624485
1281952648427,0.629888
1281952708427,0.631234
1281952768427,0.628382
1281952828436,0.628862
1281952888435,0.620930
1281952948435,0.623667
1281953008435,0.628941
1281953068435,0.625823
1281953128436,0.634149
1281953188436,0.631196
1281953248436,0.624025
1281953308436,0.630073
1281953368436,0.625938
1281953428436,0.628519
1281953488436,0.621275
1281953548436,0.627980
1281953608436,0.618853
1281953668436,0.625158
1281953728436,0.626826
1281953788436,0.626824
1281953848436,0.624819
1281953908436,0.633314
1281953968436,0.625518
1281954028436,0.629403
1281954088436,0.627171
1281954148436,0.621532
1281954208436,0.621922
1281954268435,0.624592
1281954328435,0.626021
1281954388435,0.624490
1281954448436,0.627343
1281954508436,0.620565
1281954568436,0.619292
1281954628436,0.629020
1281954688436,0.623796
1281954748436,0.629225
1281954808436,0.625970
1281954868436,0.619333
1281954928436,0.622017
1281954988436,0.624004
1281955048436,0.625491
1281955108436,0.626969
1281955168436,0.618559
1281955228436,0.628340
1281955288436,0.618988
1281955348436,0.616389
1281955408436,0.616445
1281955468436,0.625015
1281955528436,0.632918
1281955588435,0.625003
1281955648435,0.623697
1281955708435,0.623666
1281955768435,0.625792
1281955828436,0.623637
1281955888436,0.627230
1281955948436,0.631567
1281956008436,0.626348
1281956068436,0.624229
1281956128436,0.619602
1281956188436,0.625336
1281956248436,0.626414
1281956308436,0.627489
1281956368436,0.629289
1281956428444,0.626157
1281956488444,0.620816
1281956548444,0.621369
1281956608444,0.627762
1281956668444,0.624210
1281956728444,0.631774
1281956788444,0.620359
1281956848444,0.627831
1281956908444,0.621779
1281956968444,0.627671
1281957028444,0.630898
1281957088444,0.624054
1281957148444,0.619376
1281957208444,0.623627
1281957268444,0.628613
1281957328444,0.613033
1281957388444,0.619324
1281957448444,0.628286
1281957508444,0.621324
1281957568444,0.617692
1281957628444,0.626355
1281957688444,0.626978
1281957748444,0.622184
1281957808444,0.621111
1281957868444,0.625418
1281957928444,0.628160
1281957988444,0.629520
1281958048444,0.627506
1281958108444,0.623905
1281958168444,0.626631
1281958228444,0.629488
1281958288444,0.629591
1281958348444,0.630384
1281958408444,0.634575
1281958468444,0.629977
1281958528444,0.631422
1281958588444,0.631900
1281958648444,0.631108
1281958708444,0.642496
1281958768444,0.642121
1281958828444,0.642835
1281958888444,0.639259
1281958948444,0.651919
1281959008444,0.645194
1281959068444,0.652251
1281959128444,0.652671
1281959188444,0.660179
1281959248444,0.649891
1281959308444,0.651259
1281959368444,0.655245
1281959428444,0.652352
1281959488444,0.652682
1281959548444,0.651860
1281959608444,0.654387
1281959668444,0.651051
1281959728444,0.649872
1281959788444,0.641807
1281959848444,0.649872
1281959908444,0.646231
1281959968444,0.647873
1281960028453,0.643362
1281960088453,0.647530
1281960148453,0.646550
1281960208453,0.645309
1281960268453,0.643057
1281960328453,0.644380
1281960388453,0.640315
1281960448453,0.641534
1281960508453,0.641329
1281960568453,0.641138
1281960628453,0.634821
1281960688453,0.637470
1281960748453,0.643825
1281960808453,0.640182
1281960868453,0.635904
1281960928453,0.638229
1281960988453,0.636653
1281961048453,0.635136
1281961108453,0.639104
1281961168453,0.634117
1281961228453,0.634090
1281961288453,0.637857
1281961348453,0.628444
1281961408453,0.637951
1281961468453,0.627115
1281961528453,0.630550
1281961588453,0.630872
1281961648453,0.630115
1281961708453,0.636022
1281961768453,0.631531
1281961828453,0.635148
1281961888453,0.635713
1281961948453,0.632770
1281962008453,0.629005
1281962068453,0.629982
1281962128453,0.631729
1281962188453,0.633045
1281962248453,0.631207
1281962308453,0.633291
1281962368453,0.629801
1281962428453,0.626004
1281962488453,0.634885
1281962548453,0.628010
1281962608453,0.627891
1281962668453,0.631569
1281962728453,0.631817
1281962788453,0.632588
1281962848453,0.626536
1281962908453,0.629606
1281962968453,0.628435
1281963028453,0.626400
1281963088453,0.629816
1281963148453,0.633545
1281963208453,0.629252
1281963268453,0.629627
1281963328453,0.629150
1281963388453,0.626792
1281963448453,0.633168
1281963508453,0.635876
1281963568453,0.629978
1281963628462,0.629076
1281963688462,0.628355
1281963748462,0.627111
1281963808462,0.633297
1281963868462,0.632127
1281963928462,0.626637
1281963988462,0.635455
1281964048462,0.626930
1281964108462,0.627220
1281964168462,0.633275
1281964228462,0.628916
1281964288462,0.626732
1281964888462,0.628938
1281964948462,0.630971
1281965008462,0.624285
1281965068462,0.620619
1281965128462,0.632321
1281965188462,0.625907
1281965248462,0.628578
1281965308462,0.625570
1281965368462,0.622187
1281965428462,0.628357
1281965488462,0.624265
1281965548462,0.634333
1281965608462,0.634207
1281965668462,0.625442
1281965728462,0.624315
1281965788462,0.621569
1281965848462,0.626679
1281965908462,0.628966
1281965968462,0.631638
1281966028462,0.627782
1281966088462,0.625301
1281966148462,0.625771
1281966208462,0.625523
1281966268462,0.624563
1281966328462,0.628078
1281966388462,0.630160
1281966448462,0.626705
1281966508462,0.626349
1281966568462,0.626363
1281966628462,0.627550
1281966688462,0.625487
1281966748462,0.630297
1281966808462,0.631258
1281966868462,0.629023
1281966928462,0.634123
1281966988462,0.635132
1281967048462,0.624829
1281967108462,0.630369
1281967168462,0.624687
1281967228471,0.631466
1281967288471,0.626523
1281967348471,0.631682
1281967408471,0.634645
1281967468471,0.639703
1281967528471,0.641582
1281967588471,0.637529
1281967648471,0.642716
1281967708471,0.634375
1281967768471,0.636568
1281967828471,0.638599
1281967888471,0.632182
1281967948471,0.638724
1281968008471,0.636210
1281968068471,0.634917
1281968128471,0.641381
1281968188471,0.639358
1281968248471,0.637937
1281968308471,0.633609
1281968368471,0.637313
1281968428471,0.633701
1281968488471,0.637884
1281968548471,0.629303
1281968608471,0.640555
1281968668471,0.640495
1281968728471,0.635321
1281968788471,0.637977
1281968848471,0.625559
1281968908471,0.638801
1281968968471,0.636612
1281969028471,0.634026
1281969088471,0.637260
1281969148471,0.635427
1281969208471,0.630408
1281969268471,0.633289
1281969328471,0.632568
1281969388471,0.632915
1281969448471,0.633955
1281969508471,0.639935
1281969568471,0.636491
1281969628471,0.643130
1281969688471,0.633988
1281969748471,0.636132
1281969808471,0.638122
1281969868471,0.638844
1281969928471,0.631622
1281969988471,0.632007
1281970048471,0.634560
1281970108471,0.637947
1281970168471,0.633784
1281970228471,0.639423
1281970288471,0.633168
1281970348471,0.628939
1281970408471,0.637105
1281970468471,0.634435
1281970528471,0.639282
1281970588471,0.635916
1281970648471,0.636311
1281970708471,0.642141
1281970768471,0.640663
1281970828481,0.637982
1281970888481,0.643813
1281970948481,0.641528
1281971008481,0.643840
1281971068481,0.642803
1281971128481,0.639895
1281971188481,0.650068
1281971248481,0.651226
1281971308481,0.656417
1281971368481,0.657193
1281971428481,0.655339
1281971488481,0.653736
1281971548481,0.653702
1281971608481,0.659263
1281971668481,0.657529
1281971728481,0.657029
1281971788481,0.654072
1281971848481,0.658049
1281971908481,0.656867
1281971968481,0.655225
1281972028481,0.662750
1281972088481,0.668271
1281972148481,0.662530
1281972208481,0.676451
1281972268481,0.663867
1281972328481,0.675367
1281972388481,0.670529
1281972448481,0.672649
1281972508481,0.668740
1281972568481,0.666129
1281972628481,0.669329
1281972688481,0.676794
1281972748481,0.665216
1281972808481,0.665422
1281972868481,0.663964
1281972928481,0.670348
1281972988481,0.659996
1281973048481,0.661480
1281973108481,0.660161
1281973168481,0.653597
1281973228481,0.656400
1281973288481,0.656625
1281973348481,0.650295
1281973408481,0.652803
1281973468481,0.661169
1281973528481,0.655186
1281973588481,0.653165
1281973648481,0.649829
1281973708481,0.647988
1281973768481,0.653440
1281973828481,0.648486
1281973888481,0.644396
1281973948481,0.654241
1281974008481,0.649453
1281974068481,0.655412
1281974128481,0.646014
1281974188481,0.643717
1281974248481,0.655538
1281974308481,0.646559
1281974368481,0.648199
1281974428491,0.643986
1281974488491,0.639071
1281974548491,0.640817
1281974608491,0.641304
1281974668491,0.638825
1281974728491,0.637716
1281974788491,0.642447
1281974848491,0.638424
1281974908491,0.643601
1281974968491,0.635216
1281975028491,0.639730
1281975088491,0.634518
1281975148491,0.637009
1281975208491,0.635607
1281975268491,0.637877
1281975328491,0.630419
1281975388491,0.622889
1281975448491,0.636485
1281975508491,0.635476
1281975568491,0.631975
1281975628491,0.634348
1281975688491,0.626409
1281975748491,0.633959
1281975808491,0.634186
1281975868491,0.629433
1281975928491,0.627072
1281975988491,0.629856
1281976048491,0.634959
1281976108491,0.629717
1281976168491,0.622493
1281976228491,0.627797
1281976288491,0.631368
1281976348491,0.631777
1281976408491,0.630043
1281976468491,0.625622
1281976528491,0.626961
1281976588491,0.634763
1281976648491,0.635186
1281976708491,0.651368
1281976768491,0.669629
1281976828491,0.660873
1281976888491,0.653315
1281976948491,0.658749
1281977008491,0.658437
1281977068491,0.663125
1281977128491,0.665215
1281977188491,0.671521
1281977248491,0.665406
1281977308491,0.674284
1281977368491,0.672611
1281977428491,0.677159
1281977488491,0.672936
1281977548491,0.672659
1281977608491,0.672220
1281977668491,0.676774
1281977728491,0.669688
1281977788491,0.667116
1281977848491,0.661519
1281977908491,0.664661
1281977968491,0.675444
1281978028501,0.651122
1281978088501,0.656872
1281978148501,0.648978
1281978208501,0.649716
1281978268501,0.647431
1281978328501,0.652925
1281978388501,0.647633
1281978448501,0.643487
1281978508501,0.640767
1281978568501,0.646061
1281978628501,0.642233
1281978688501,0.638248
1281978748501,0.637524
1281978808501,0.637714
1281978868501,0.642009
1281978928501,0.633157
1281978988501,0.636543
1281979048501,0.636820
1281979108501,0.631796
1281979168501,0.638476
1281979228501,0.631481
1281979288501,0.626866
1281979348501,0.623739
1281979408501,0.633533
1281979468501,0.631381
1281979528501,0.631532
1281979588501,0.628232
1281979648501,0.625306
1281979708501,0.629351
1281979768501,0.627527
1281979828501,0.629195
1281979888501,0.623354